This is the latest recevied weather packets stored in our database for station/object WX5KDM. If no packets are shown the sender has not sent any weather packets the latest 10 day(s).
| Time | Temp. | Humidity | Pressure | Rain* | Wind** | Luminosity | Snow |
|---|---|---|---|---|---|---|---|
| 1777850080 | 22.22° C | 37% | 1017.4 hPa | 0 mm | - | - | - |
| 1777849777 | 22.22° C | 35% | 1017.5 hPa | 0 mm | - | - | - |
| 1777849473 | 22.78° C | 35% | 1017.6 hPa | 0 mm | - | - | - |
| 1777849171 | 22.78° C | 36% | 1017.6 hPa | 0 mm | - | - | - |
| 1777848868 | 23.33° C | 39% | 1017.7 hPa | 0 mm | - | - | - |
| 1777848563 | 22.78° C | 39% | 1017.7 hPa | 0 mm | - | - | - |
| 1777848260 | 23.33° C | 37% | 1017.5 hPa | 0 mm | - | - | - |
| 1777847958 | 23.33° C | 39% | 1017.8 hPa | 0 mm | - | - | - |
| 1777847656 | 23.33° C | 38% | 1017.7 hPa | 0 mm | - | - | - |
| 1777847351 | 23.89° C | 39% | 1017.7 hPa | 0 mm | - | - | - |
| 1777847050 | 23.33° C | 38% | 1017.6 hPa | 0 mm | - | - | - |
| 1777846747 | 23.33° C | 38% | 1017.9 hPa | 0 mm | - | - | - |
| 1777846446 | 23.33° C | 35% | 1017.7 hPa | 0 mm | - | - | - |
| 1777846142 | 23.33° C | 37% | 1017.8 hPa | 0 mm | - | - | - |
| 1777845839 | 23.33° C | 37% | 1017.8 hPa | 0 mm | - | - | - |
| 1777845536 | 23.33° C | 38% | 1017.7 hPa | 0 mm | - | - | - |
| 1777845233 | 23.33° C | 36% | 1017.9 hPa | 0 mm | - | - | - |
| 1777844930 | 23.89° C | 36% | 1018 hPa | 0 mm | - | - | - |
| 1777844627 | 23.89° C | 34% | 1018.3 hPa | 0 mm | - | - | - |
| 1777844325 | 23.33° C | 35% | 1018.2 hPa | 0 mm | - | - | - |
| 1777844022 | 23.89° C | 34% | 1018.3 hPa | 0 mm | - | - | - |
| 1777843719 | 23.33° C | 34% | 1018.4 hPa | 0 mm | - | - | - |
| 1777843417 | 23.33° C | 38% | 1018.4 hPa | 0 mm | - | - | - |
| 1777843114 | 23.33° C | 36% | 1018.5 hPa | 0 mm | - | - | - |
| 1777842811 | 23.33° C | 37% | 1018.8 hPa | 0 mm | - | - | - |
* Rain latest hour (hover to see other rain measurements)
** Current wind speed in m/s (hover to see current wind gust speed)